Pittsburg, KS

6:02 AM CDT on May 27, 2017 (GMT -0500)
Atkinson Municipal

Weather History for KPTS - October, 2012

Change the Weather History Date:

Monday, October 8, 2012

  Actual Average (KJLN) Record (KJLN)
Temperature  
Mean Temperature 45 °F -  
Max Temperature 59 °F 70 °F 93 °F (1979)
Min Temperature 31 °F 51 °F 25 °F (2000)
Degree Days  
Heating Degree Days 20    
Moisture  
Dew Point 34 °F    
Average Humidity 66    
Maximum Humidity 100    
Minimum Humidity 38    
Precipitation  
Precipitation 0.00 in - - ()
Sea Level Pressure  
Sea Level Pressure 30.13 in    
Wind  
Wind Speed 7 mph (SSW)    
Max Wind Speed 17 mph    
Max Gust Speed 22 mph    
Visibility 10 miles    
Events      
Averages and records for this station are not official NWS values.
T = Trace of Precipitation, MM = Missing Value Source: NWS Daily Summary

Daily Weather History Graph

Daily Weather History Graph

Search for Another Location

Airport or City:

Trip Planner

Search our weather history database for the weather conditions in past years. The results will help you decide how hot, cold, wet, or windy it might be!

Date:

Astronomy

Oct. 08, 2012 Rise Set
Actual Time 7:21 AM CDT 6:50 PM CDT
Civil Twilight 6:54 AM CDT 7:17 PM CDT
Nautical Twilight 6:24 AM CDT 7:47 PM CDT
Astronomical Twilight 5:54 AM CDT 8:17 PM CDT
Moon 12:09 AM CDT (10/8) 2:33 PM CDT (10/8)
Length of Visible Light 12h 22m
Length of Day
11h 29m
Last Quarter, 46% of the Moon is Illuminated
Oct 8
Last Quarter
Oct 15
New
Oct 21
First Quarter
Oct 29
Full
Nov 6
Last Quarter

Hourly Weather History & Observations

Time (CDT) Temp. Windchill Dew Point Humidity Pressure Visibility Wind Dir Wind Speed Gust Speed Precip Events Conditions
12:15 AM 37.9 °F 34.4 °F 30.9 °F 76% 30.19 in 10.0 mi SW 4.6 mph - N/A   Clear
12:35 AM 37.4 °F 33.8 °F 30.2 °F 75% 30.19 in 10.0 mi SW 4.6 mph - N/A   Clear
12:55 AM 37.4 °F 32.1 °F 30.6 °F 76% 30.19 in 10.0 mi SW 6.9 mph - N/A   Clear
1:15 AM 37.0 °F 31.0 °F 30.7 °F 78% 30.19 in 10.0 mi WSW 8.1 mph - N/A   Clear
1:35 AM 38.8 °F 34.6 °F 32.0 °F 76% 30.19 in 10.0 mi WSW 5.8 mph - N/A   Clear
1:55 AM 38.8 °F 34.6 °F 31.8 °F 76% 30.20 in 10.0 mi WSW 5.8 mph - N/A   Clear
2:15 AM 38.8 °F 33.8 °F 32.0 °F 76% 30.20 in 10.0 mi WSW 6.9 mph - N/A   Clear
2:35 AM 37.9 °F 34.4 °F 32.0 °F 79% 30.20 in 10.0 mi West 4.6 mph - N/A   Clear
2:55 AM 36.7 °F 32.9 °F 31.6 °F 82% 30.19 in 10.0 mi WSW 4.6 mph - N/A   Clear
3:15 AM 36.1 °F 32.3 °F 32.4 °F 86% 30.19 in 10.0 mi SSW 4.6 mph - N/A   Clear
3:35 AM 34.5 °F 29.4 °F 32.2 °F 91% 30.19 in 10.0 mi South 5.8 mph - N/A   Clear
3:55 AM 33.8 °F 28.6 °F 32.9 °F 96% 30.18 in 10.0 mi SSW 5.8 mph - N/A   Clear
4:15 AM 33.8 °F 29.6 °F 34.0 °F 100% 30.19 in 10.0 mi SSW 4.6 mph - N/A   Clear
4:35 AM 33.8 °F - 34.0 °F 100% 30.19 in 10.0 mi Calm Calm - N/A   Clear
4:55 AM 33.8 °F - 34.0 °F 100% 30.18 in 10.0 mi Calm Calm - N/A   Clear
5:15 AM 33.6 °F 30.6 °F 33.8 °F 100% 30.18 in 10.0 mi SSW 3.5 mph - N/A   Clear
5:35 AM 32.4 °F 27.9 °F 32.5 °F 100% 30.18 in 10.0 mi South 4.6 mph - N/A   Clear
5:55 AM 32.9 °F - 33.1 °F 100% 30.19 in 10.0 mi Calm Calm - N/A   Clear
6:15 AM 32.4 °F 29.1 °F 32.7 °F 100% 30.19 in 10.0 mi SSW 3.5 mph - N/A   Clear
6:35 AM 31.6 °F 28.3 °F 31.8 °F 100% 30.19 in 10.0 mi South 3.5 mph - N/A   Clear
6:55 AM 31.6 °F 27.0 °F 31.8 °F 100% 30.19 in 7.0 mi South 4.6 mph - N/A   Clear
7:15 AM 31.6 °F 28.3 °F 31.8 °F 100% 30.19 in 5.0 mi SSW 3.5 mph - N/A   Clear
7:35 AM 31.6 °F 28.3 °F 31.8 °F 100% 30.19 in 5.0 mi South 3.5 mph - N/A   Clear
7:55 AM 32.5 °F 27.1 °F - N/A% 30.19 in 5.0 mi SSW 5.8 mph - N/A   Clear
8:15 AM 33.8 °F 27.7 °F - N/A% 30.19 in 5.0 mi SSW 6.9 mph - N/A   Haze
8:35 AM 35.8 °F 29.4 °F - N/A% 30.19 in 7.0 mi SSW 8.1 mph - N/A   Clear
8:55 AM - - - N/A% 30.19 in 10.0 mi SSW 9.2 mph - N/A   Clear
9:15 AM 39.7 °F 34.3 °F 39.4 °F 99% 30.19 in 10.0 mi SSW 8.1 mph - N/A   Clear
9:35 AM 41.9 °F 36.3 °F 38.3 °F 87% 30.19 in 10.0 mi SSW 9.2 mph - N/A   Clear
9:55 AM 45.5 °F 41.3 °F 37.9 °F 75% 30.19 in 10.0 mi SSW 8.1 mph - N/A   Clear
10:15 AM 48.9 °F - 35.8 °F 61% 30.19 in 10.0 mi SW 8.1 mph - N/A   Clear
10:35 AM 49.3 °F - 34.3 °F 56% 30.19 in 10.0 mi SW 9.2 mph - N/A   Clear
10:55 AM 50.7 °F - 33.6 °F 52% 30.18 in 10.0 mi SSW 10.4 mph - N/A   Clear
11:15 AM 52.7 °F - 33.1 °F 47% 30.19 in 10.0 mi SW 13.8 mph 18.4 mph N/A   Clear
11:35 AM 54.0 °F - 33.3 °F 46% 30.18 in 10.0 mi SW 13.8 mph - N/A   Clear
11:55 AM 54.0 °F - 32.7 °F 45% 30.17 in 10.0 mi SW 16.1 mph 19.6 mph N/A   Clear
12:15 PM 54.0 °F - 32.0 °F 43% 30.17 in 10.0 mi SW 13.8 mph 18.4 mph N/A   Clear
12:35 PM 54.1 °F - 31.3 °F 42% 30.16 in 10.0 mi WSW 13.8 mph 20.7 mph N/A   Clear
12:55 PM 55.6 °F - 32.0 °F 41% 30.15 in 10.0 mi SSW 17.3 mph - N/A   Clear
1:15 PM 56.5 °F - 33.3 °F 42% 30.14 in 10.0 mi SSW 17.3 mph 21.9 mph N/A   Clear
1:35 PM 56.5 °F - 32.9 °F 41% 30.12 in 10.0 mi SW 12.7 mph 20.7 mph N/A   Clear
1:55 PM 56.7 °F - 33.1 °F 41% 30.12 in 10.0 mi SSW 15.0 mph 19.6 mph N/A   Clear
2:15 PM 57.9 °F - 33.3 °F 39% 30.10 in 10.0 mi SW 11.5 mph 19.6 mph N/A   Clear
2:35 PM 59.0 °F - 34.2 °F 39% 30.09 in 10.0 mi SSW 13.8 mph 21.9 mph N/A   Clear
2:55 PM 59.0 °F - 34.2 °F 39% 30.08 in 10.0 mi SW 13.8 mph 21.9 mph N/A   Clear
3:15 PM 59.0 °F - 33.4 °F 38% 30.07 in 10.0 mi SW 15.0 mph 20.7 mph N/A   Clear
3:35 PM 59.0 °F - 33.8 °F 39% 30.06 in 10.0 mi SSW 11.5 mph - N/A   Clear
3:55 PM 59.2 °F - 33.8 °F 38% 30.05 in 10.0 mi SSW 15.0 mph 19.6 mph N/A   Clear
4:15 PM 59.2 °F - 34.2 °F 39% 30.05 in 10.0 mi SW 13.8 mph 19.6 mph N/A   Clear
4:35 PM 59.0 °F - 34.0 °F 39% 30.04 in 10.0 mi SSW 10.4 mph - N/A   Clear
4:55 PM 59.0 °F - 33.8 °F 39% 30.04 in 10.0 mi SSW 16.1 mph - N/A   Clear
5:15 PM 59.0 °F - 33.8 °F 39% 30.04 in 10.0 mi SW 12.7 mph - N/A   Clear
5:35 PM 59.0 °F - 34.9 °F 40% 30.03 in 10.0 mi SW 13.8 mph 19.6 mph N/A   Clear
5:55 PM 58.5 °F - 35.4 °F 42% 30.03 in 10.0 mi SW 11.5 mph - N/A   Clear
6:15 PM 56.7 °F - 35.1 °F 44% 30.03 in 10.0 mi SSW 11.5 mph - N/A   Clear
6:35 PM 56.5 °F - 36.1 °F 47% 30.03 in 10.0 mi SSW 9.2 mph - N/A   Clear
6:55 PM 54.7 °F - 36.7 °F 51% 30.02 in 10.0 mi SSW 9.2 mph - N/A   Clear
7:35 PM 52.0 °F - 38.5 °F 60% 30.03 in 10.0 mi SSW 8.1 mph - N/A   Clear
7:55 PM 51.4 °F - 38.5 °F 61% 30.03 in 10.0 mi SSW 8.1 mph - N/A   Clear
8:15 PM 51.3 °F - 38.7 °F 62% 30.03 in 10.0 mi SSW 6.9 mph - N/A   Clear
8:35 PM 49.5 °F - 37.8 °F 64% 30.03 in 10.0 mi SSW 8.1 mph - N/A   Clear
8:55 PM 49.1 °F - 37.4 °F 64% 30.04 in 10.0 mi SSW 8.1 mph - N/A   Clear
9:15 PM 49.1 °F - 37.8 °F 65% 30.04 in 10.0 mi SSW 6.9 mph - N/A   Clear
9:35 PM 49.1 °F - 38.7 °F 67% 30.04 in 10.0 mi South 6.9 mph - N/A   Clear
9:55 PM 48.0 °F - 38.5 °F 70% 30.04 in 10.0 mi South 5.8 mph - N/A   Clear
10:15 PM 45.9 °F 42.9 °F 37.8 °F 73% 30.04 in 10.0 mi South 5.8 mph - N/A   Clear
10:55 PM 45.0 °F 41.2 °F 37.8 °F 76% 30.04 in 10.0 mi South 6.9 mph - N/A   Clear
11:35 PM 46.2 °F 42.7 °F 39.0 °F 76% 30.04 in 10.0 mi South 6.9 mph - N/A   Clear
11:55 PM 46.4 °F 42.9 °F 39.2 °F 76% 30.04 in 10.0 mi South 6.9 mph - N/A   Clear